DW2227 Weather Reports


time (UTC)temp
F
wind
direction
speed
knots
gust
knots
rain 1hr
in
rain 24hr
in
rain mn
in
humidity
%
barometer
mb
20260508073319 51 360 0.0 0.0 0.05 0.25 0.10 89 1010.3
20260508072846 51 360 0.0 0.0 0.05 0.25 0.10 89 1010.4
20260508072325 51 360 0.0 0.0 0.05 0.25 0.10 89 1010.5
20260508071828 51 360 0.0 0.0 0.06 0.25 0.10 89 1010.6
20260508071330 51 360 0.0 0.0 0.04 0.22 0.07 89 1010.9
20260508070834 51 360 0.0 0.9 0.03 0.21 0.06 89 1010.9
20260508070317 51 360 0.0 1.7 0.03 0.21 0.06 89 1010.7
20260508065843 51 360 0.0 1.7 0.02 0.20 0.05 89 1010.7
20260508065346 51 360 0.0 0.9 0.02 0.20 0.05 89 1010.5
20260508064850 51 360 0.0 0.9 0.02 0.20 0.05 89 1010.6
20260508064332 51 360 0.0 0.9 0.03 0.20 0.05 89 1010.6
20260508063837 51 360 0.0 0.0 0.03 0.20 0.05 89 1010.8
20260508063321 51 360 0.0 0.0 0.05 0.20 0.05 89 1010.9
20260508062824 51 360 0.0 0.0 0.05 0.20 0.05 89 1011.1
20260508062323 51 360 0.0 0.9 0.05 0.20 0.05 89 1011.1
20260508061826 51 360 0.0 1.7 0.04 0.19 0.04 89 1011.2
20260508061330 51 360 0.9 1.7 0.03 0.18 0.03 89 1011.4
20260508060817 51 360 0.0 0.9 0.03 0.18 0.03 89 1011.4
20260508060320 51 360 0.0 0.9 0.03 0.18 0.03 89 1011.3
20260508055828 51 360 0.0 0.0 0.03 0.18 0.03 89 1011.1
20260508055336 51 360 0.0 0.0 0.03 0.18 0.03 89 1011.0
20260508054822 51 360 0.0 0.0 0.03 0.18 0.03 89 1011.0
20260508054327 51 360 0.0 0.0 0.02 0.17 0.02 89 1011.2
20260508053833 51 360 0.0 0.0 0.02 0.17 0.02 88 1011.4
20260508053318 51 360 0.0 0.0 0.01 0.15 0.00 88 1011.3
20260508052824 50 360 0.0 0.0 0.01 0.15 0.00 88 1011.0
20260508052326 51 360 0.0 0.0 0.01 0.15 0.15 88 1010.8
20260508051829 50 360 0.0 0.0 0.01 0.15 0.15 88 1011.0
20260508051334 50 360 0.0 0.0 0.01 0.15 0.15 88 1011.0
20260508050817 50 360 0.0 0.9 0.01 0.15 0.15 88 1010.9
20260508050322 50 360 0.0 0.9 0.01 0.15 0.15 88 1010.9
20260508045835 51 360 0.0 0.0 0.01 0.15 0.15 88 1011.2
20260508045318 51 360 0.0 0.0 0.02 0.15 0.15 87 1011.1
20260508044822 51 360 0.0 0.0 0.02 0.15 0.15 87 1010.9
20260508044327 51 360 0.0 0.9 0.02 0.15 0.15 87 1011.0
20260508043850 51 360 0.0 0.9 0.02 0.15 0.15 87 1011.1
20260508043333 51 360 0.0 0.9 0.01 0.14 0.14 86 1011.2
20260508042837 51 360 0.0 0.9 0.01 0.14 0.14 86 1010.8
20260508042336 51 360 0.0 0.0 0.01 0.14 0.14 86 1011.1
20260508041818 51 360 0.0 0.9 0.01 0.14 0.14 85 1010.9
20260508041321 51 360 0.0 0.9 0.01 0.14 0.14 85 1010.8
20260508040828 51 360 0.0 0.9 0.01 0.14 0.14 84 1010.7
20260508040334 52 360 0.0 1.7 0.01 0.14 0.14 83 1010.8
20260508035821 52 360 0.0 1.7 0.01 0.14 0.14 83 1010.7
20260508035327 52 360 0.0 0.0 0.00 0.13 0.13 81 1011.0
20260508034829 52 360 0.0 0.0 0.00 0.13 0.13 80 1011.0
20260508034334 51 360 0.0 0.9 0.00 0.13 0.13 81 1010.6
20260508033819 51 360 0.0 0.9 0.00 0.13 0.13 81 1010.5
20260508033326 51 360 0.0 0.9 0.00 0.13 0.13 82 1010.5
20260508032834 51 360 0.0 0.9 0.00 0.13 0.13 83 1010.5
20260508032318 51 360 0.0 0.0 0.00 0.13 0.13 83 1010.6
20260508031825 51 360 0.0 0.0 0.00 0.13 0.13 83 1010.7
20260508031331 52 360 0.0 0.0 0.00 0.13 0.13 82 1010.6
20260508030855 52 360 0.0 0.0 0.00 0.13 0.13 82 1010.7
20260508030337 52 360 0.0 0.9 0.00 0.13 0.13 82 1010.6
20260508025817 52 360 0.0 0.0 0.00 0.13 0.13 82 1010.6
20260508025321 52 360 0.0 0.0 0.00 0.13 0.13 82 1010.7
20260508024845 51 360 0.0 0.9 0.00 0.13 0.13 81 1010.5
20260508024330 51 360 0.0 0.9 0.00 0.13 0.13 81 1010.5
20260508023828 52 360 0.0 0.9 0.00 0.13 0.13 82 1010.5
20260508023330 52 360 0.0 0.0 0.00 0.13 0.13 82 1010.4
20260508022834 52 360 0.0 0.0 0.00 0.13 0.13 82 1010.4
20260508022316 52 360 0.0 0.0 0.00 0.13 0.13 81 1010.4
20260508021844 52 360 0.0 0.0 0.00 0.13 0.13 82 1010.4
20260508021330 52 360 0.0 0.0 0.00 0.13 0.13 81 1010.3
20260508020857 52 360 0.0 0.0 0.00 0.13 0.13 81 1010.4
20260508020323 53 360 0.0 0.9 0.00 0.13 0.13 82 1010.2
20260508015829 52 360 0.0 0.9 0.01 0.13 0.13 82 1010.3
20260508015335 53 360 0.0 0.0 0.01 0.13 0.13 82 1010.3
20260508014822 53 360 0.0 0.9 0.01 0.13 0.13 81 1010.2
20260508014328 53 360 0.0 0.9 0.01 0.13 0.13 82 1010.0
20260508013834 53 360 0.0 0.0 0.01 0.13 0.13 81 1010.0
20260508013321 53 360 0.0 0.0 0.02 0.13 0.13 81 1009.9
20260508012844 54 360 0.0 0.0 0.02 0.13 0.13 81 1009.9
20260508012330 54 360 0.0 0.0 0.02 0.13 0.13 80 1010.0
20260508011849 54 360 0.0 0.9 0.02 0.13 0.13 79 1010.0
20260508011331 55 360 0.0 0.9 0.02 0.13 0.13 78 1009.9
20260508010834 55 360 0.0 0.9 0.02 0.13 0.13 77 1009.8
20260508010358 56 360 0.0 0.9 0.02 0.13 0.13 76 1009.9
20260508005841 57 119 0.0 0.9 0.01 0.12 0.12 74 1009.9
20260508005324 58 111 0.0 0.9 0.01 0.12 0.12 71 1009.8
20260508004829 59 99 0.0 1.7 0.01 0.12 0.12 66 1009.7
20260508004347 61 126 0.0 7.0 0.01 0.12 0.12 65 1010.0
20260508003830 61 157 0.9 7.0 0.01 0.12 0.12 59 1010.0
20260508003333 62 28 0.9 3.5 0.00 0.11 0.11 55 1010.2
20260508002834 63 123 0.0 1.7 0.00 0.11 0.11 50 1009.9
20260508002317 63 96 0.0 0.9 0.00 0.11 0.11 50 1009.9
20260508001845 63 96 0.0 0.9 0.00 0.11 0.11 48 1009.7
20260508001332 64 96 0.0 0.9 0.00 0.11 0.11 48 1009.6
20260508000838 64 96 0.0 0.9 0.00 0.11 0.11 47 1009.6
20260508000324 64 96 0.0 3.5 0.00 0.11 0.11 47 1009.7
20260507235831 64 228 0.0 3.5 0.00 0.11 0.11 46 1009.6
20260507235334 65 242 0.9 3.5 0.00 0.11 0.11 44 1009.5
20260507234821 65 213 0.9 2.6 0.00 0.11 0.11 44 1009.6
20260507234326 65 238 0.9 1.7 0.00 0.11 0.11 44 1009.6
20260507233850 65 287 0.9 1.7 0.00 0.11 0.11 44 1009.6
20260507233334 65 232 0.9 2.6 0.00 0.11 0.11 44 1009.6
20260507232820 65 360 0.9 2.6 0.00 0.11 0.11 45 1009.6
20260507232326 65 360 0.9 5.2 0.00 0.11 0.11 45 1009.6
20260507231831 65 360 0.9 5.2 0.00 0.11 0.11 44 1009.7
20260507231334 65 360 0.0 3.5 0.00 0.11 0.11 45 1009.7
20260507230837 65 360 0.9 3.5 0.00 0.11 0.11 45 1009.7
20260507230319 65 298 0.9 2.6 0.00 0.11 0.11 44 1009.7
20260507225841 65 314 0.0 4.3 0.00 0.11 0.11 45 1009.7
20260507225324 65 205 1.7 4.3 0.00 0.11 0.11 43 1009.7
20260507224848 65 328 0.9 3.5 0.00 0.11 0.11 43 1009.7
20260507224327 65 277 0.9 6.1 0.00 0.11 0.11 44 1009.9
20260507223828 65 296 1.7 5.2 0.00 0.11 0.11 44 1009.8
20260507223325 66 341 1.7 5.2 0.00 0.11 0.11 43 1009.9
20260507222831 65 360 0.9 5.2 0.00 0.11 0.11 44 1009.9
20260507222335 65 360 2.6 7.8 0.00 0.11 0.11 42 1009.9
20260507221838 65 360 2.6 7.8 0.00 0.11 0.11 41 1010.0
20260507221321 66 360 0.9 7.0 0.00 0.11 0.11 42 1010.2
20260507220823 65 360 1.7 4.3 0.00 0.11 0.11 43 1010.0
20260507220357 65 340 1.7 6.1 0.00 0.11 0.11 43 1010.0
20260507215836 65 288 2.6 6.1 0.00 0.11 0.11 42 1010.0
20260507215320 65 195 2.6 6.1 0.00 0.11 0.11 42 1010.1
20260507214845 65 360 1.7 6.1 0.00 0.11 0.11 42 1010.1
20260507214329 65 360 0.9 6.1 0.00 0.11 0.11 43 1010.2
20260507213834 65 360 2.6 4.3 0.00 0.11 0.11 44 1010.2
20260507213356 65 360 1.7 4.3 0.00 0.11 0.11 43 1010.2
20260507212821 65 320 0.9 7.0 0.00 0.11 0.11 45 1010.2
20260507212329 65 252 1.7 7.0 0.00 0.11 0.11 44 1010.2
20260507211835 65 210 1.7 6.1 0.00 0.11 0.11 43 1010.2
20260507211319 64 360 2.6 7.0 0.00 0.11 0.11 43 1010.3
20260507210827 64 360 2.6 7.0 0.00 0.11 0.11 44 1010.3
20260507210331 64 252 1.7 8.7 0.00 0.11 0.11 44 1010.3
20260507205817 63 279 1.7 8.7 0.00 0.11 0.11 46 1010.3
20260507205324 63 234 3.5 7.8 0.00 0.11 0.11 43 1010.4
20260507204829 63 202 1.7 7.0 0.00 0.11 0.11 46 1010.4
20260507204333 62 360 1.7 8.7 0.00 0.11 0.11 47 1010.5
20260507203827 62 337 3.5 8.7 0.00 0.11 0.11 48 1010.5
20260507203324 62 257 3.5 7.0 0.00 0.11 0.11 47 1010.6
20260507202836 61 212 0.9 7.8 0.00 0.11 0.11 53 1010.8
20260507202318 61 307 2.6 7.8 0.00 0.11 0.11 53 1011.0
20260507201822 60 107 0.9 7.8 0.00 0.11 0.11 52 1011.0
20260507201326 60 211 1.7 5.2 0.00 0.11 0.11 56 1011.1
20260507200828 60 283 1.7 7.0 0.00 0.11 0.11 52 1011.1
20260507200349 60 313 2.6 7.0 0.00 0.11 0.11 52 1011.3
20260507195831 60 203 3.5 8.7 0.00 0.11 0.11 51 1011.3
20260507195358 61 272 2.6 8.7 0.00 0.11 0.11 51 1011.1
20260507194843 62 360 0.9 10.4 0.00 0.11 0.11 49 1011.3
20260507194350 62 360 3.5 10.4 0.00 0.11 0.11 51 1011.3
20260507193834 61 360 0.9 8.7 0.00 0.11 0.11 56 1011.6
20260507193321 61 360 2.6 8.7 0.00 0.11 0.11 53 1011.7
20260507192828 61 360 1.7 7.0 0.00 0.11 0.11 53 1011.7
20260507192336 61 360 2.6 7.8 0.00 0.11 0.11 53 1011.7
20260507191822 61 360 2.6 9.6 0.00 0.11 0.11 52 1011.5
20260507191348 61 360 3.5 8.7 0.00 0.11 0.11 54 1011.6
20260507190827 60 269 0.9 8.7 0.00 0.11 0.11 58 1011.6
20260507190355 60 259 1.7 8.7 0.00 0.11 0.11 58 1011.8
20260507185819 59 237 1.7 8.7 0.00 0.11 0.11 62 1011.9
20260507185334 59 286 1.7 6.1 0.00 0.11 0.11 63 1011.8
20260507184830 59 264 1.7 6.1 0.00 0.11 0.11 64 1011.8
20260507184345 58 238 1.7 5.2 0.00 0.11 0.11 66 1011.9
20260507183833 58 172 0.9 6.1 0.00 0.11 0.11 64 1011.9
20260507183317 57 241 1.7 6.1 0.00 0.11 0.11 66 1012.1
20260507182837 57 277 0.9 4.3 0.00 0.11 0.11 71 1012.1
20260507182316 56 99 0.9 3.5 0.00 0.11 0.11 73 1011.8
20260507181822 56 162 1.7 3.5 0.00 0.11 0.11 73 1012.1
20260507181328 55 80 0.9 3.5 0.00 0.11 0.11 76 1012.2
20260507180855 54 187 0.9 2.6 0.00 0.11 0.11 79 1012.2
20260507180318 53 24 0.0 1.7 0.00 0.11 0.11 80 1012.3
20260507175825 53 186 0.0 0.9 0.00 0.11 0.11 79 1012.5
20260507175326 52 360 0.0 1.7 0.00 0.11 0.11 81 1012.6
20260507174833 52 360 0.0 2.6 0.00 0.11 0.11 81 1012.8
20260507174339 51 360 0.0 2.6 0.01 0.11 0.11 81 1013.0
20260507173825 51 360 0.9 1.7 0.01 0.11 0.11 82 1013.1
20260507173329 51 360 0.0 1.7 0.01 0.11 0.11 83 1013.3
20260507172836 50 360 0.0 2.6 0.02 0.11 0.11 82 1013.3
20260507172324 50 360 0.0 4.3 0.02 0.11 0.11 81 1013.1
20260507171827 50 360 0.9 4.3 0.03 0.11 0.11 82 1013.4
20260507171330 50 360 0.0 2.6 0.03 0.11 0.11 82 1013.7
20260507170833 50 360 0.0 2.6 0.04 0.11 0.11 83 1013.5
20260507170316 50 360 0.0 2.6 0.04 0.11 0.11 82 1013.7
20260507165818 50 360 0.0 3.5 0.04 0.11 0.11 81 1013.4
20260507165323 50 360 0.0 10.4 0.04 0.11 0.11 80 1013.7
20260507164828 50 360 1.7 10.4 0.04 0.11 0.11 80 1013.5
20260507164331 50 360 0.0 5.2 0.03 0.10 0.10 81 1013.6
20260507163829 49 360 0.9 5.2 0.03 0.10 0.10 81 1013.9
20260507163333 49 360 0.9 4.3 0.03 0.10 0.10 81 1014.0
20260507162836 49 360 0.0 1.7 0.02 0.09 0.09 82 1014.2
20260507162318 49 360 0.0 1.7 0.02 0.09 0.09 85 1014.2
20260507161824 49 360 0.0 0.0 0.01 0.08 0.08 85 1014.1
20260507161350 49 360 0.0 1.7 0.00 0.07 0.07 84 1013.9
20260507160817 49 360 0.0 1.7 0.00 0.07 0.07 83 1013.9
20260507160322 49 360 0.0 1.7 0.03 0.07 0.07 83 1013.5
20260507155829 48 360 0.0 3.5 0.05 0.07 0.07 85 1013.1
20260507155335 48 360 0.9 3.5 0.06 0.07 0.07 84 1013.3
20260507154821 48 360 0.0 0.9 0.06 0.07 0.07 85 1013.4
20260507154328 47 360 0.0 2.6 0.06 0.07 0.07 85 1013.3
20260507153836 47 360 0.0 2.6 0.07 0.07 0.07 84 1013.3
20260507153321 47 360 0.0 1.7 0.07 0.07 0.07 84 1013.2
20260507152828 47 360 0.0 3.5 0.07 0.07 0.07 85 1013.2
20260507152350 47 360 1.7 3.5 0.07 0.07 0.07 85 1013.2
20260507151832 47 360 0.0 2.6 0.07 0.07 0.07 83 1013.4
20260507151357 47 360 0.0 3.5 0.07 0.07 0.07 82 1013.8
20260507150838 48 360 0.9 4.3 0.06 0.06 0.06 80 1014.3
20260507150341 48 360 0.9 4.3 0.04 0.04 0.04 77 1015.0
20260507145818 49 360 0.9 4.3 0.02 0.02 0.02 74 1015.0
20260507145343 49 360 1.7 7.0 0.01 0.01 0.01 72 1014.8
20260507144818 50 360 2.6 7.0 0.01 0.01 0.01 67 1014.7
20260507144338 51 360 0.9 3.5 0.01 0.01 0.01 69 1014.4
20260507143821 52 360 0.9 3.5 0.00 0.00 0.00 66 1014.7
20260507143325 52 360 0.9 8.7 0.00 0.00 0.00 61 1014.4
20260507142828 53 360 2.6 8.7 0.00 0.00 0.00 57 1014.3
20260507142332 53 223 0.9 4.3 0.00 0.00 0.00 53 1014.4
20260507141837 53 290 0.9 4.3 0.00 0.00 0.00 52 1014.3
20260507141322 53 297 1.7 4.3 0.00 0.00 0.00 51 1013.8
20260507140829 53 15 0.0 2.6 0.00 0.00 0.00 52 1013.7
20260507140336 54 325 0.0 4.3 0.00 0.00 0.00 50 1013.5
20260507135823 54 254 0.9 4.3 0.00 0.00 0.00 53 1013.4
20260507135330 53 258 0.9 3.5 0.00 0.00 0.00 52 1013.4
20260507134835 53 93 0.9 2.6 0.00 0.00 0.00 51 1013.4
20260507134322 53 176 0.0 2.6 0.00 0.00 0.00 55 1013.4
20260507133828 52 360 0.9 2.6 0.00 0.00 0.00 54 1013.4
20260507133328 52 360 0.0 2.6 0.00 0.00 0.00 54 1013.4
20260507132832 52 360 0.9 2.6 0.00 0.00 0.00 57 1013.4
20260507132336 51 360 0.0 2.6 0.00 0.00 0.00 59 1013.7
20260507131819 50 360 0.9 3.5 0.00 0.00 0.00 58 1013.7
20260507131343 49 360 0.0 3.5 0.00 0.00 0.00 62 1013.8
20260507130824 48 360 0.9 2.6 0.00 0.00 0.00 62 1014.0
20260507130326 47 360 0.9 2.6 0.00 0.00 0.00 67 1014.1
20260507125829 46 360 0.0 1.7 0.00 0.00 0.00 70 1014.1
20260507125333 45 360 0.0 2.6 0.00 0.00 0.00 70 1014.2
20260507124835 44 360 0.9 2.6 0.00 0.00 0.00 72 1014.2
20260507124318 43 360 0.0 0.9 0.00 0.00 0.00 75 1014.2
20260507123822 42 360 0.0 0.0 0.00 0.00 0.00 78 1014.4
20260507123323 42 360 0.0 1.7 0.00 0.00 0.00 79 1014.4
20260507122823 41 360 0.0 4.3 0.00 0.00 0.00 81 1014.3
20260507122322 40 360 0.0 4.3 0.00 0.00 0.00 83 1014.3
20260507121829 39 360 0.0 2.6 0.00 0.00 0.00 87 1014.2
20260507121333 38 360 0.0 1.7 0.00 0.00 0.00 89 1014.0
20260507120818 37 360 0.0 0.9 0.00 0.00 0.00 89 1014.0
20260507120323 36 360 0.0 1.7 0.00 0.00 0.00 89 1014.3
20260507115852 36 360 0.0 1.7 0.00 0.00 0.00 89 1014.1
20260507115338 35 360 0.0 1.7 0.00 0.00 0.00 89 1014.4
20260507114826 34 360 0.0 0.9 0.00 0.00 0.00 89 1014.4
20260507114331 34 360 0.0 1.7 0.00 0.00 0.00 89 1014.5
20260507113817 33 360 0.0 1.7 0.00 0.00 0.00 89 1014.4
20260507113324 33 360 0.0 0.9 0.00 0.00 0.00 89 1014.4
20260507112829 33 360 0.0 1.7 0.00 0.00 0.00 89 1014.4
20260507112317 32 360 0.9 1.7 0.00 0.00 0.00 89 1014.4
20260507111820 32 360 0.0 0.9 0.00 0.00 0.00 89 1014.3
20260507111324 32 360 0.0 0.9 0.00 0.00 0.00 89 1014.3
20260507110845 32 360 0.0 0.9 0.00 0.00 0.00 89 1014.3
20260507110327 32 360 0.0 0.0 0.00 0.00 0.00 89 1014.4
20260507105831 32 360 0.0 0.0 0.00 0.00 0.00 89 1014.4
20260507105354 32 360 0.0 0.0 0.00 0.00 0.00 88 1014.4
20260507104837 32 360 0.0 0.0 0.00 0.00 0.00 88 1014.4
20260507104319 32 360 0.0 0.0 0.00 0.00 0.00 88 1014.4
20260507103842 32 360 0.0 0.0 0.00 0.00 0.00 88 1014.3
20260507103323 32 360 0.0 0.0 0.00 0.00 0.00 88 1014.4
20260507102825 32 360 0.0 0.0 0.00 0.00 0.00 88 1014.5
20260507102350 32 360 0.0 0.0 0.00 0.00 0.00 89 1014.5
20260507101831 32 360 0.0 0.0 0.00 0.00 0.00 88 1014.6
20260507101319 32 360 0.0 0.0 0.00 0.00 0.00 88 1014.6
20260507100849 32 360 0.0 0.0 0.00 0.00 0.00 88 1014.7
20260507100332 32 360 0.0 0.0 0.00 0.00 0.00 88 1014.8
20260507095819 32 360 0.0 0.0 0.00 0.00 0.00 88 1014.7
20260507095326 32 360 0.0 0.0 0.00 0.00 0.00 88 1014.8
20260507094830 32 360 0.0 0.0 0.00 0.00 0.00 88 1014.7
20260507094337 33 360 0.0 0.0 0.00 0.00 0.00 88 1014.8
20260507093845 33 360 0.0 0.0 0.00 0.00 0.00 88 1014.8
20260507093330 33 360 0.0 0.0 0.00 0.00 0.00 88 1014.9
20260507092836 33 360 0.0 0.0 0.00 0.00 0.00 88 1014.9
20260507092324 33 360 0.0 0.9 0.00 0.00 0.00 88 1014.8
20260507091825 33 360 0.0 0.9 0.00 0.00 0.00 88 1014.8
20260507091322 33 360 0.0 0.0 0.00 0.00 0.00 88 1014.9
20260507090824 33 360 0.0 0.0 0.00 0.00 0.00 88 1014.9
20260507090322 33 360 0.0 0.9 0.00 0.00 0.00 88 1015.0
20260507085822 33 360 0.0 0.9 0.00 0.00 0.00 88 1015.0
20260507085326 33 360 0.0 0.0 0.00 0.00 0.00 88 1015.0
20260507084827 33 360 0.0 0.0 0.00 0.00 0.00 88 1015.2
20260507084331 33 360 0.0 0.0 0.00 0.00 0.00 88 1015.2
20260507083834 33 360 0.0 0.0 0.00 0.00 0.00 88 1015.2
20260507083317 33 360 0.0 0.0 0.00 0.00 0.00 88 1015.3
20260507082821 33 360 0.0 0.0 0.00 0.00 0.00 88 1015.2
20260507082345 33 360 0.0 0.9 0.00 0.00 0.00 88 1015.2
20260507081830 34 360 0.0 0.9 0.00 0.00 0.00 88 1015.3
20260507081318 34 360 0.0 0.0 0.00 0.00 0.00 88 1015.3
20260507080845 34 360 0.0 0.0 0.00 0.00 0.00 88 1015.3
20260507080328 34 360 0.0 0.0 0.00 0.00 0.00 87 1015.4
20260507075834 34 360 0.0 0.0 0.00 0.00 0.00 88 1015.4
20260507075321 34 360 0.0 0.0 0.00 0.00 0.00 88 1015.5
20260507074847 34 360 0.0 0.9 0.00 0.00 0.00 88 1015.6
20260507074333 34 360 0.0 0.9 0.00 0.00 0.00 87 1015.5
20260507073819 34 360 0.0 0.9 0.00 0.00 0.00 87 1015.5